Location: ?????
(31.8092°N, 35.2590°E)
Time: 03:38:17
(UTC+00:00)

Lacrosse 5 - Pass Details

Date: 27 October 2021
Orbit: 714 x 724 km, 57.0° (Epoch: 28 August)

Event Time Altitude Azimuth Distance (km) Brightness Sun altitude
Rises 18:06:02 0° 255° (WSW) 3,128 5.9 -41.3°
Reaches altitude 10° 18:08:59 10° 272° (W) 2,210 5.0 -41.9°
Enters shadow 18:09:45 13° 279° (W) 2,016 4.8 -42.1°
